Location: Norton
(51.3000°N, 0.8167°E)
Time: 02:54:47
(UTC+00:00)

Okean 3 - Pass Details

Date: 03 March 2021
Orbit: 577 x 600 km, 82.5° (Epoch: 13 April)

Event Time Altitude Azimuth Distance (km) Brightness Sun altitude
Rises 20:11:54 0° 345° (NNW) 2,832 7.4 -24.0°
Reaches altitude 10° 20:14:09 10° 340° (NNW) 1,930 6.6 -24.3°
Maximum altitude 20:18:16 50° 266° (W) 761 4.3 -24.9°
Enters shadow 20:19:38 35° 214° (SW) 960 4.5 -25.1°
